Hourly Weather Ad-Dauha

Today, 1 October, Thursday

Time Temperature Precipitation Wind Pressure Humidity
00:00 +33°C° 0 mm 3 mps 752 mmHg 64%
01:00 +33°C° 0 mm 3 mps 752 mmHg 64%
02:00 +33°C° 0 mm 3 mps 752 mmHg 65%
03:00 +31°C° 0 mm 3 mps 752 mmHg 71%
04:00 +31°C° 0 mm 3 mps 752 mmHg 68%
05:00 +31°C° 0 mm 3 mps 753 mmHg 66%
06:00 +30°C° 0 mm 4 mps 753 mmHg 63%
07:00 +34°C° 0 mm 4 mps 754 mmHg 48%
08:00 +37°C° 0 mm 5 mps 754 mmHg 34%
09:00 +41°C° 0 mm 5 mps 754 mmHg 19%
10:00 +42°C° 0 mm 5 mps 754 mmHg 17%
11:00 +45°C° 0 mm 5 mps 754 mmHg 15%
12:00 +45°C° 0 mm 4 mps 754 mmHg 13%
13:00 +45°C° 0 mm 4 mps 753 mmHg 13%
14:00 +45°C° 0 mm 4 mps 753 mmHg 13%
15:00 +45°C° 0 mm 4 mps 752 mmHg 13%
16:00 +42°C° 0 mm 4 mps 752 mmHg 22%
17:00 +38°C° 0 mm 4 mps 753 mmHg 30%
18:00 +35°C° 0 mm 4 mps 753 mmHg 39%
19:00 +35°C° 0 mm 4 mps 753 mmHg 43%
20:00 +34°C° 0 mm 4 mps 754 mmHg 47%
21:00 +33°C° 0 mm 3 mps 754 mmHg 51%
22:00 +33°C° 0 mm 3 mps 754 mmHg 52%
23:00 +33°C° 0 mm 3 mps 754 mmHg 54%

Tomorrow, 2 October, Friday

Time Temperature Precipitation Wind Pressure Humidity
00:00 +33°C° 0 mm 3 mps 755 mmHg 55%
01:00 +33°C° 0 mm 3 mps 754 mmHg 56%
02:00 +31°C° 0 mm 2 mps 754 mmHg 57%
03:00 +31°C° 0 mm 2 mps 754 mmHg 58%
04:00 +31°C° 0 mm 2 mps 755 mmHg 51%
05:00 +31°C° 0 mm 3 mps 755 mmHg 44%
06:00 +31°C° 0 mm 3 mps 756 mmHg 37%
07:00 +34°C° 0 mm 3 mps 756 mmHg 30%
08:00 +37°C° 0 mm 4 mps 756 mmHg 23%
09:00 +40°C° 0 mm 4 mps 756 mmHg 16%
10:00 +42°C° 0 mm 4 mps 756 mmHg 16%
11:00 +43°C° 0 mm 4 mps 756 mmHg 16%
12:00 +44°C° 0 mm 4 mps 756 mmHg 15%
13:00 +44°C° 0 mm 4 mps 755 mmHg 16%
14:00 +43°C° 0 mm 4 mps 755 mmHg 18%
15:00 +43°C° 0 mm 5 mps 754 mmHg 19%
16:00 +41°C° 0 mm 5 mps 754 mmHg 29%
17:00 +37°C° 0 mm 5 mps 754 mmHg 40%
18:00 +35°C° 0 mm 5 mps 755 mmHg 50%
19:00 +34°C° 0 mm 5 mps 755 mmHg 55%
20:00 +34°C° 0 mm 5 mps 755 mmHg 60%
21:00 +33°C° 0 mm 5 mps 756 mmHg 65%
22:00 +33°C° 0 mm 4 mps 755 mmHg 66%
23:00 +32°C° 0 mm 4 mps 755 mmHg 67%

Day after tomorrow, 3 October, Saturday

Time Temperature Precipitation Wind Pressure Humidity
00:00 +31°C° 0 mm 3 mps 755 mmHg 68%
01:00 +30°C° 0 mm 2 mps 755 mmHg 71%
02:00 +29°C° 0 mm 2 mps 754 mmHg 73%
03:00 +28°C° 0 mm 1 mps 754 mmHg 75%
04:00 +29°C° 0 mm 2 mps 754 mmHg 71%
05:00 +29°C° 0 mm 2 mps 755 mmHg 67%
06:00 +29°C° 0 mm 2 mps 755 mmHg 63%
07:00 +33°C° 0 mm 3 mps 755 mmHg 52%
08:00 +35°C° 0 mm 3 mps 756 mmHg 41%
09:00 +38°C° 0 mm 3 mps 756 mmHg 30%
10:00 +39°C° 0 mm 3 mps 756 mmHg 27%
11:00 +40°C° 0 mm 3 mps 755 mmHg 24%
12:00 +43°C° 0 mm 3 mps 755 mmHg 21%
13:00 +42°C° 0 mm 4 mps 755 mmHg 25%
14:00 +41°C° 0 mm 4 mps 754 mmHg 29%
15:00 +40°C° 0 mm 5 mps 754 mmHg 33%
16:00 +37°C° 0 mm 5 mps 754 mmHg 42%
17:00 +36°C° 0 mm 5 mps 754 mmHg 51%
18:00 +34°C° 0 mm 5 mps 754 mmHg 60%
19:00 +33°C° 0 mm 4 mps 755 mmHg 63%
20:00 +33°C° 0 mm 4 mps 755 mmHg 65%
21:00 +31°C° 0 mm 3 mps 755 mmHg 67%
22:00 +30°C° 0 mm 2 mps 755 mmHg 69%
23:00 +30°C° 0 mm 1 mps 755 mmHg 71%

4 October, Sunday

Time Temperature Precipitation Wind Pressure Humidity
00:00 +27°C° 0 mm 0 mps 755 mmHg 73%
01:00 +27°C° 0 mm 0 mps 754 mmHg 74%
02:00 +26°C° 0 mm 0 mps 754 mmHg 74%
03:00 +28°C° 0 mm 1 mps 754 mmHg 74%
04:00 +28°C° 0 mm 1 mps 754 mmHg 71%
05:00 +28°C° 0 mm 1 mps 755 mmHg 69%
06:00 +28°C° 0 mm 1 mps 755 mmHg 66%
07:00 +31°C° 0 mm 1 mps 756 mmHg 53%
08:00 +34°C° 0 mm 1 mps 756 mmHg 41%
09:00 +38°C° 0 mm 2 mps 756 mmHg 29%
10:00 +39°C° 0 mm 2 mps 756 mmHg 26%
11:00 +40°C° 0 mm 2 mps 755 mmHg 24%
12:00 +42°C° 0 mm 3 mps 755 mmHg 21%
13:00 +41°C° 0 mm 4 mps 755 mmHg 26%
14:00 +40°C° 0 mm 4 mps 754 mmHg 32%
15:00 +39°C° 0 mm 5 mps 754 mmHg 38%
16:00 +36°C° 0 mm 5 mps 754 mmHg 44%
17:00 +35°C° 0 mm 5 mps 754 mmHg 51%
18:00 +34°C° 0 mm 5 mps 754 mmHg 58%
19:00 +33°C° 0 mm 5 mps 754 mmHg 60%
20:00 +33°C° 0 mm 4 mps 755 mmHg 62%
21:00 +33°C° 0 mm 4 mps 755 mmHg 63%
22:00 +32°C° 0 mm 4 mps 755 mmHg 65%
23:00 +32°C° 0 mm 4 mps 754 mmHg 66%

5 October, Monday

Time Temperature Precipitation Wind Pressure Humidity
00:00 +32°C° 0 mm 4 mps 754 mmHg 67%
01:00 +31°C° 0 mm 3 mps 754 mmHg 67%
02:00 +30°C° 0 mm 3 mps 754 mmHg 67%
03:00 +30°C° 0 mm 3 mps 754 mmHg 67%
04:00 +30°C° 0 mm 2 mps 754 mmHg 68%
05:00 +29°C° 0 mm 1 mps 754 mmHg 69%
06:00 +29°C° 0 mm 1 mps 754 mmHg 71%
07:00 +29°C° 0 mm 0 mps 755 mmHg 61%
08:00 +31°C° 0 mm 0 mps 755 mmHg 52%
09:00 +34°C° 0 mm 0 mps 755 mmHg 42%
10:00 +38°C° 0 mm 2 mps 755 mmHg 39%
11:00 +39°C° 0 mm 3 mps 755 mmHg 35%
12:00 +41°C° 0 mm 4 mps 754 mmHg 32%
13:00 +41°C° 0 mm 4 mps 754 mmHg 34%
14:00 +40°C° 0 mm 5 mps 753 mmHg 37%
15:00 +40°C° 0 mm 5 mps 753 mmHg 39%
16:00 +37°C° 0 mm 5 mps 753 mmHg 47%
17:00 +36°C° 0 mm 5 mps 753 mmHg 55%
18:00 +34°C° 0 mm 5 mps 753 mmHg 63%
19:00 +34°C° 0 mm 5 mps 753 mmHg 65%
20:00 +33°C° 0 mm 5 mps 753 mmHg 67%
21:00 +33°C° 0 mm 4 mps 754 mmHg 70%
22:00 +32°C° 0 mm 4 mps 753 mmHg 70%
23:00 +32°C° 0 mm 4 mps 753 mmHg 71%

6 October, Tuesday

Time Temperature Precipitation Wind Pressure Humidity
00:00 +31°C° 0 mm 3 mps 753 mmHg 72%
01:00 +30°C° 0 mm 2 mps 753 mmHg 74%
02:00 +29°C° 0 mm 2 mps 753 mmHg 77%
03:00 +29°C° 0 mm 1 mps 753 mmHg 80%
04:00 +29°C° 0 mm 1 mps 753 mmHg 78%
05:00 +29°C° 0 mm 1 mps 753 mmHg 77%
06:00 +29°C° 0 mm 1 mps 754 mmHg 76%
07:00 +31°C° 0 mm 1 mps 754 mmHg 64%
08:00 +35°C° 0 mm 2 mps 754 mmHg 52%
09:00 +37°C° 0 mm 2 mps 755 mmHg 40%
10:00 +38°C° 0 mm 2 mps 754 mmHg 37%
11:00 +39°C° 0 mm 3 mps 754 mmHg 34%
12:00 +40°C° 0 mm 3 mps 754 mmHg 30%
13:00 +41°C° 0 mm 4 mps 753 mmHg 33%
14:00 +40°C° 0 mm 4 mps 753 mmHg 36%
15:00 +40°C° 0 mm 5 mps 752 mmHg 39%
16:00 +37°C° 0 mm 5 mps 752 mmHg 46%
17:00 +36°C° 0 mm 4 mps 752 mmHg 54%
18:00 +34°C° 0 mm 4 mps 753 mmHg 61%
19:00 +34°C° 0 mm 4 mps 753 mmHg 62%
20:00 +33°C° 0 mm 4 mps 753 mmHg 64%
21:00 +33°C° 0 mm 4 mps 754 mmHg 66%
22:00 +33°C° 0 mm 4 mps 754 mmHg 67%
23:00 +31°C° 0 mm 3 mps 753 mmHg 68%
Show more